Date String (YYYY-MM-DD hh:mm:ss) UTC,Instrument flags,absolute air pressure of the measurement (hPa),sample flow rate (lpm),inlet stack bypass flow (lpm),air temperature of the measurement (°C),ambient temperature measured by the external sensor (°C),aerosol sample conditioner tube jacket temperature (°C),OPC LED temperature (°C),internal box temperature (°C),relative humidity of the measurement (%),span deviation,mass concentration of particles derived from Lorenz-Mie calculation of OPC scattering (μg/m³),mass concentration of particles derived from Lorenz-Mie calculation of OPC scattering (μg/m³),mass concentration of particles derived from Lorenz-Mie calculation of OPC scattering (μg/m³)
DateTimeUTC,F1_M11,P_M11,Q1_M11,Q2_M11,T1_M11,T2_M11,T3_M11,T4_M11,T5_M11,U1_M11,ZSPAN_M11,X2_M11,X0_M11,X1_M11
2023-06-05 05:00:00,SystemResetWarning,0835.6,5.00,000.00,030.3,028.8,000.0,038.6,031.9,31.1,0000.0,0003.61,0005.60,0003.39
2023-06-05 05:01:00,SystemResetWarning,0835.6,5.00,000.00,030.3,028.8,000.0,038.6,031.9,31.0,0000.0,0003.61,0005.57,0003.40
2023-06-05 05:02:00,SystemResetWarning,0835.6,5.00,000.00,030.3,028.8,000.0,038.6,031.9,31.1,0000.0,0003.60,0005.57,0003.41
2023-06-05 05:03:00,SystemResetWarning,0835.6,4.99,000.00,030.3,028.8,000.0,038.6,031.9,31.2,0000.0,0003.61,0005.66,0003.42
2023-06-05 05:04:00,SystemResetWarning,0835.6,5.00,000.00,030.3,028.8,000.0,038.6,031.9,31.2,0000.0,0003.62,0005.64,0003.44
2023-06-05 05:05:00,SystemResetWarning,0835.7,4.99,000.00,030.3,028.8,000.0,038.6,031.9,31.2,0000.0,0003.63,0006.13,0003.46
2023-06-05 05:06:00,SystemResetWarning,0835.6,5.00,000.00,030.3,028.8,000.0,038.7,031.9,31.2,0000.0,0003.66,0006.28,0003.47
2023-06-05 05:07:00,SystemResetWarning,0835.6,5.00,000.00,030.3,028.8,000.0,038.7,031.9,31.3,0000.0,0003.69,0006.24,0003.52
2023-06-05 05:08:00,SystemResetWarning,0835.6,5.00,000.00,030.3,028.8,000.0,038.7,031.9,31.3,0000.0,0003.69,0006.15,0003.54
2023-06-05 05:09:00,SystemResetWarning,0835.6,5.00,000.00,030.3,028.8,000.0,038.7,031.9,31.3,0000.0,0003.71,0006.11,0003.58
2023-06-05 05:10:00,SystemResetWarning,0835.6,5.00,000.00,030.3,028.8,000.0,038.7,031.9,31.3,0000.0,0003.75,0005.64,0003.62
2023-06-05 05:11:00,SystemResetWarning,0835.6,5.00,000.00,030.3,028.8,000.0,038.7,031.9,31.2,0000.0,0003.78,0005.56,0003.65
2023-06-05 05:12:00,SystemResetWarning,0835.6,5.00,000.00,030.3,028.8,000.0,038.7,031.9,31.2,0000.0,0003.78,0005.53,0003.66
2023-06-05 05:13:00,SystemResetWarning,0835.6,5.00,000.00,030.3,028.8,000.0,038.7,031.9,31.3,0000.0,0003.77,0005.35,0003.67
2023-06-05 05:14:00,SystemResetWarning,0835.6,5.00,000.00,030.3,028.8,000.0,038.7,031.9,31.3,0000.0,0003.76,0005.23,0003.66
2023-06-05 05:15:00,SystemResetWarning,0835.6,5.00,000.00,030.3,028.8,000.0,038.7,031.9,31.3,0000.0,0003.76,0005.27,0003.66
2023-06-05 05:16:00,SystemResetWarning,0835.6,5.00,000.00,030.3,028.8,000.0,038.7,031.9,31.3,0000.4,0003.77,0004.99,0003.65
2023-06-05 05:17:00,SystemResetWarning,0835.6,5.00,000.00,030.3,028.8,000.0,038.7,031.9,31.3,0000.2,0003.78,0004.78,0003.65
2023-06-05 05:18:00,SystemResetWarning,0835.6,5.00,000.00,030.3,028.8,000.0,038.7,031.9,31.2,-000.2,0003.79,0004.86,0003.64
2023-06-05 05:19:00,SystemResetWarning,0835.6,5.00,000.00,030.3,028.8,000.0,038.7,031.9,31.2,-000.4,0003.79,0004.93,0003.63
2023-06-05 05:20:00,SystemResetWarning,0835.6,5.00,000.00,030.3,028.7,000.0,038.7,031.9,31.2,0000.0,0003.76,0004.97,0003.59
2023-06-05 05:21:00,SystemResetWarning,0835.6,5.00,000.00,030.3,028.7,000.0,038.7,031.9,31.2,0000.1,0003.72,0004.93,0003.55
2023-06-05 05:22:00,SystemResetWarning,0835.5,5.00,000.00,030.3,028.8,000.0,038.7,031.9,31.2,0000.0,0003.71,0004.96,0003.53
2023-06-05 05:23:00,SystemResetWarning,0835.6,5.00,000.00,030.3,028.8,000.0,038.7,031.9,31.3,0000.0,0003.72,0005.00,0003.54
2023-06-05 05:24:00,SystemResetWarning,0835.5,5.00,000.00,030.3,028.8,000.0,038.7,031.9,31.3,0000.0,0003.74,0005.06,0003.54
2023-06-05 05:25:00,SystemResetWarning,0835.5,5.00,000.00,030.3,028.8,000.0,038.7,031.9,31.4,0000.0,0003.77,0005.12,0003.56
2023-06-05 05:26:00,SystemResetWarning,0835.6,5.00,000.00,030.3,028.8,000.0,038.7,031.9,31.3,0000.0,0003.76,0005.06,0003.54
2023-06-05 05:27:00,SystemResetWarning,0835.5,5.00,000.00,030.3,028.8,000.0,038.7,031.9,31.4,0000.0,0003.74,0004.95,0003.54
2023-06-05 05:28:00,SystemResetWarning,0835.5,5.00,000.00,030.3,028.8,000.0,038.7,031.9,31.4,0000.2,0003.73,0004.85,0003.54
2023-06-05 05:29:00,SystemResetWarning,0835.5,5.00,000.00,030.3,028.8,000.0,038.7,031.9,31.4,0000.4,0003.73,0004.85,0003.55
2023-06-05 05:30:00,SystemResetWarning,0835.5,5.00,000.00,030.3,028.8,000.0,038.7,031.9,31.4,0000.0,0003.73,0004.83,0003.54
2023-06-05 05:31:00,SystemResetWarning,0835.6,5.00,000.00,030.3,028.8,000.0,038.7,031.9,31.4,0000.5,0003.72,0004.75,0003.55
2023-06-05 05:32:00,SystemResetWarning,0835.6,5.00,000.00,030.3,028.8,000.0,038.7,031.9,31.4,0000.5,0003.73,0004.74,0003.54
2023-06-05 05:33:00,SystemResetWarning,0835.6,5.00,000.00,030.3,028.8,000.0,038.7,031.9,31.3,0000.0,0003.70,0004.78,0003.51
2023-06-05 05:34:00,SystemResetWarning,0835.6,5.00,000.00,030.3,028.8,000.0,038.7,031.9,31.2,0000.0,0003.66,0004.69,0003.47
2023-06-05 05:35:00,SystemResetWarning,0835.6,5.00,000.00,030.3,028.8,000.0,038.7,031.9,31.1,0000.0,0003.59,0004.62,0003.40
2023-06-05 05:36:00,SystemResetWarning,0835.6,5.00,000.00,030.3,028.8,000.0,038.7,031.9,31.3,0000.0,0003.55,0004.68,0003.34
2023-06-05 05:37:00,SystemResetWarning,0835.6,5.00,000.00,030.3,028.8,000.0,038.7,031.9,31.4,0000.0,0003.53,0004.68,0003.33
2023-06-05 05:38:00,SystemResetWarning,0835.6,5.00,000.00,030.3,028.8,000.0,038.7,031.9,31.4,0000.0,0003.56,0005.10,0003.35
2023-06-05 05:39:00,SystemResetWarning,0835.5,5.00,000.00,030.3,028.8,000.0,038.7,031.9,31.5,0000.0,0003.61,0006.12,0003.40
2023-06-05 05:40:00,SystemResetWarning,0835.5,5.00,000.00,030.3,028.8,000.0,038.7,031.9,31.4,0000.0,0003.63,0006.11,0003.45
2023-06-05 05:41:00,SystemResetWarning,0835.5,5.00,000.00,030.3,028.8,000.0,038.7,031.9,31.5,0000.0,0003.66,0006.10,0003.49
2023-06-05 05:42:00,SystemResetWarning,0835.6,5.00,000.00,030.3,028.8,000.0,038.7,031.9,31.6,0000.0,0003.73,0006.22,0003.54
2023-06-05 05:43:00,SystemResetWarning,0835.6,5.00,000.00,030.3,028.8,000.0,038.7,031.9,31.6,0000.0,0003.78,0006.33,0003.60
2023-06-05 05:44:00,SystemResetWarning,0835.6,5.00,000.00,030.3,028.8,000.0,038.7,031.9,31.6,0000.0,0003.84,0006.32,0003.67
2023-06-05 05:45:00,SystemResetWarning,0835.7,5.00,000.00,030.3,028.8,000.0,038.7,031.9,31.5,0000.0,0003.93,0006.43,0003.76
2023-06-05 05:46:00,SystemResetWarning,0835.5,5.00,000.00,030.3,028.8,000.0,038.7,031.9,31.5,0000.0,0004.05,0006.62,0003.88
2023-06-05 05:47:00,SystemResetWarning,0835.6,5.00,000.00,030.3,028.8,000.0,038.7,031.9,31.5,0000.0,0004.14,0007.32,0003.98
2023-06-05 05:48:00,SystemResetWarning,0835.6,5.00,000.00,030.3,028.8,000.0,038.7,031.9,31.5,0000.0,0004.21,0007.33,0004.06
2023-06-05 05:49:00,SystemResetWarning,0835.6,5.00,000.00,030.3,028.8,000.0,038.7,031.9,31.5,0000.4,0004.28,0007.13,0004.12
2023-06-05 05:50:00,SystemResetWarning,0835.5,5.00,000.00,030.3,028.8,000.0,038.7,031.9,31.5,-000.1,0004.31,0006.26,0004.16
2023-06-05 05:51:00,SystemResetWarning,0835.5,5.00,000.00,030.3,028.8,000.0,038.7,031.9,31.5,-000.4,0004.35,0006.34,0004.20
2023-06-05 05:52:00,SystemResetWarning,0835.5,5.00,000.00,030.4,028.8,000.0,038.7,031.9,31.5,-000.1,0004.38,0006.45,0004.22
2023-06-05 05:53:00,SystemResetWarning,0835.5,5.00,000.00,030.4,028.8,000.0,038.7,031.9,31.5,-000.2,0004.41,0006.56,0004.24
2023-06-05 05:54:00,SystemResetWarning,0835.5,4.99,000.00,030.4,028.8,000.0,038.7,032.0,31.5,0000.3,0004.43,0006.71,0004.26
2023-06-05 05:55:00,SystemResetWarning,0835.5,5.01,000.00,030.4,028.8,000.0,038.7,031.9,31.5,0000.9,0004.45,0006.79,0004.29
2023-06-05 05:56:00,SystemResetWarning,0835.5,5.01,000.00,030.4,028.8,000.0,038.7,031.9,31.6,0001.0,0004.47,0006.84,0004.30
2023-06-05 05:57:00,SystemResetWarning,0835.5,5.01,000.00,030.4,028.8,000.0,038.8,032.0,31.6,0000.9,0004.47,0006.88,0004.30
2023-06-05 05:58:00,SystemResetWarning,0835.5,5.00,000.00,030.4,028.8,000.0,038.8,032.0,31.6,0001.4,0004.47,0006.18,0004.30
2023-06-05 05:59:00,SystemResetWarning,0835.5,5.00,000.00,030.4,028.8,000.0,038.8,032.0,31.6,0001.5,0004.45,0006.14,0004.29
